Weather History for KTOP - October, 2013

Change the Weather History Date:

Tuesday, October 29, 2013

  Actual Average Record
Temperature  
Mean Temperature 60 °F 52 °F  
Max Temperature 66 °F 64 °F 89 °F (1937)
Min Temperature 54 °F 41 °F 20 °F (1952)
Degree Days  
Heating Degree Days 5 13  
Month to date heating degree days 289 262  
Since 1 July heating degree days 303 329  
Cooling Degree Days 0 0  
Month to date cooling degree days 37 25  
Year to date cooling degree days 1586 1418  
Growing Degree Days 8 (Base 50)    
Moisture  
Dew Point 56 °F    
Average Humidity 88    
Maximum Humidity 93    
Minimum Humidity 83    
Precipitation  
Precipitation 0.95 in 0.08 in 1.96 in (1971)
Month to date precipitation 2.96 2.87  
Year to date precipitation 30.70 33.10  
Snow  
Snow 0.00 in 0.10 in 0.70 in (1917)
Month to date snowfall T 0.3  
Year to date snowfall 24.2 11.6  
Since 1 July snowfall T 0.3  
Snow Depth 0.00 in    
Sea Level Pressure  
Sea Level Pressure 30.00 in    
Wind  
Wind Speed 8 mph (East)    
Max Wind Speed 17 mph    
Max Gust Speed 22 mph    
Visibility 4 miles    
Events Rain , Thunderstorm    
T = Trace of Precipitation, MM = Missing Value Source: NWS Daily Summary

Daily Weather History Graph

Daily Weather History Graph

Search for Another Location

Airport or City:

Trip Planner

Search our weather history database for the weather conditions in past years. The results will help you decide how hot, cold, wet, or windy it might be!

Date:

Astronomy

Oct. 29, 2013 Rise Set
Actual Time 7:47 AM CDT 6:24 PM CDT
Civil Twilight 7:19 AM CDT 6:52 PM CDT
Nautical Twilight 6:47 AM CDT 7:23 PM CDT
Astronomical Twilight 6:16 AM CDT 7:54 PM CDT
Moon 2:40 AM CDT 3:37 PM CDT
Length of Visible Light 11h 32m
Length of Day
10h 37m
Waning Crescent, 25% of the Moon is Illuminated
Oct 29
Waning Crescent
Nov 3
New
Nov 9
First Quarter
Nov 17
Full
Nov 25
Last Quarter

Hourly Weather History & Observations

Time (CDT) Temp. Dew Point Humidity Pressure Visibility Wind Dir Wind Speed Gust Speed Precip Events Conditions
12:53 AM 55.9 °F 50.0 °F 80% 30.06 in 8.0 mi ESE 10.4 mph - N/A   Overcast
1:53 AM 55.0 °F 50.0 °F 83% 30.08 in 8.0 mi East 8.1 mph - 0.01 in   Mostly Cloudy
2:28 AM 54.0 °F 50.0 °F 86% 30.06 in 6.0 mi ENE 9.2 mph - 0.01 in Rain Light Rain
2:53 AM 55.0 °F 51.1 °F 86% 30.05 in 6.0 mi ENE 12.7 mph - 0.05 in Rain Light Rain
3:02 AM 54.0 °F 51.1 °F 90% 30.07 in 6.0 mi East 11.5 mph - 0.02 in Rain Rain
3:09 AM 54.0 °F 51.1 °F 90% 30.07 in 2.5 mi ENE 11.5 mph - 0.15 in Rain , Thunderstorm Heavy Thunderstorms and Rain
3:20 AM 54.0 °F 51.1 °F 90% 30.04 in 3.0 mi ENE 17.3 mph - 0.18 in Rain , Thunderstorm Heavy Thunderstorms and Rain
3:24 AM 54.0 °F 51.1 °F 90% 30.05 in 2.0 mi ENE 15.0 mph - 0.23 in Rain Heavy Rain
3:40 AM 54.0 °F 52.0 °F 93% 30.04 in 3.0 mi ENE 15.0 mph - 0.30 in Rain Light Rain
3:48 AM 53.6 °F 51.8 °F 94% 30.05 in 1.8 mi ENE 12.7 mph - 0.32 in Rain Heavy Rain
3:53 AM 54.0 °F 52.0 °F 93% 30.04 in 1.5 mi East 15.0 mph 20.7 mph 0.37 in Rain Heavy Rain
4:12 AM 54.0 °F 52.0 °F 93% 30.05 in 3.0 mi East 10.4 mph - 0.15 in Rain Rain
4:21 AM 54.0 °F 52.0 °F 93% 30.04 in 3.0 mi East 12.7 mph - 0.18 in Rain Heavy Rain
4:53 AM 54.0 °F 51.1 °F 90% 30.06 in 3.0 mi ENE 6.9 mph - 0.30 in Rain Rain
5:53 AM 54.0 °F 52.0 °F 93% 30.02 in 6.0 mi ENE 9.2 mph - 0.08 in Rain Light Rain
6:53 AM 55.0 °F 52.0 °F 89% 30.01 in 3.0 mi East 12.7 mph - 0.07 in Rain Light Rain
7:04 AM 55.0 °F 52.0 °F 89% 30.01 in 5.0 mi East 11.5 mph - 0.00 in Rain Light Rain
7:28 AM 55.0 °F 53.1 °F 93% 30.02 in 9.0 mi East 11.5 mph - 0.00 in   Overcast
7:53 AM 55.0 °F 53.1 °F 93% 30.03 in 2.5 mi East 9.2 mph - 0.01 in Rain Rain
8:31 AM 55.0 °F 53.1 °F 93% 30.04 in 1.5 mi East 8.1 mph - 0.05 in Rain Light Rain
8:38 AM 55.0 °F 53.1 °F 93% 30.05 in 3.0 mi East 6.9 mph - 0.06 in Rain Light Rain
8:53 AM 55.0 °F 53.1 °F 93% 30.05 in 6.0 mi ENE 9.2 mph - 0.06 in   Overcast
9:51 AM 55.4 °F 53.6 °F 94% 30.05 in 7.0 mi East 9.2 mph - N/A   Overcast
9:53 AM 55.0 °F 53.1 °F 93% 30.05 in 7.0 mi East 8.1 mph - N/A   Overcast
10:53 AM 55.9 °F 54.0 °F 93% 30.03 in 4.0 mi East 10.4 mph - N/A   Overcast
11:53 AM 57.9 °F 55.0 °F 90% 30.01 in 5.0 mi East 11.5 mph - N/A   Overcast
12:46 PM 59.0 °F 57.0 °F 93% 29.99 in 3.0 mi ESE 8.1 mph - N/A   Overcast
12:53 PM 60.1 °F 57.0 °F 90% 29.98 in 3.0 mi ESE 11.5 mph - N/A   Overcast
1:53 PM 61.0 °F 57.9 °F 90% 29.95 in 5.0 mi ESE 8.1 mph - N/A   Overcast
2:53 PM 62.1 °F 59.0 °F 90% 29.92 in 4.0 mi ESE 5.8 mph - N/A   Overcast
3:53 PM 62.1 °F 60.1 °F 93% 29.92 in 2.5 mi SE 6.9 mph - N/A   Overcast
4:31 PM 62.1 °F 60.1 °F 93% 29.92 in 1.8 mi SE 6.9 mph - N/A   Overcast
4:43 PM 62.1 °F 60.1 °F 93% 29.93 in 2.0 mi SE 5.8 mph - N/A   Overcast
4:53 PM 63.0 °F 60.1 °F 90% 29.92 in 2.0 mi ESE 5.8 mph - N/A   Overcast
5:53 PM 63.0 °F 61.0 °F 93% 29.91 in 2.0 mi East 4.6 mph - N/A   Overcast
6:32 PM 63.0 °F 61.0 °F 93% 29.92 in 3.0 mi East 5.8 mph - N/A   Overcast
6:53 PM 63.0 °F 61.0 °F 93% 29.92 in 3.0 mi ESE 6.9 mph - N/A   Overcast
7:17 PM 63.0 °F 61.0 °F 93% 29.93 in 2.5 mi SE 5.8 mph - N/A   Overcast
7:53 PM 64.0 °F 62.1 °F 93% 29.93 in 2.0 mi ESE 3.5 mph - N/A   Overcast
8:11 PM 64.0 °F 62.1 °F 93% 29.94 in 3.0 mi East 4.6 mph - N/A   Overcast
8:53 PM 64.0 °F 62.1 °F 93% 29.94 in 3.0 mi SSE 4.6 mph - N/A   Overcast
9:06 PM 64.9 °F 62.1 °F 90% 29.95 in 4.0 mi SSE 5.8 mph - N/A   Overcast
9:53 PM 66.0 °F 63.0 °F 90% 29.95 in 4.0 mi South 4.6 mph - N/A   Overcast
10:53 PM 66.0 °F 64.0 °F 93% 29.96 in 3.0 mi SW 3.5 mph - N/A   Overcast
11:03 PM 66.0 °F 64.0 °F 93% 29.97 in 2.5 mi WSW 4.6 mph - N/A   Overcast
11:53 PM 66.0 °F 64.0 °F 93% 29.96 in 2.5 mi SW 4.6 mph - N/A   Overcast